Home > Time Zones > World Clock > Weather > Spain > Palma > Past weeks

Flag for Spain Weather past 2 weeks in Palma, Majorca, Spain

Now
57 °F

Sunny.


Feels Like: 57 °F
Forecast: 50 / 79 °F
Wind: No wind

Location: Palma De Mallorca / Son San Juan

Current Time: Oct 24, 2014 at 9:56:03 AM

Latest Report: Oct 24, 2014 at 9:30 AM


Visibility: 10 mi

Pressure: 30.04 "Hg

Humidity: 67%

Dew point: 46 °F

Location of PalmaLocation

Historic Weather in Palma — Graph

°F

Palma temperature yesterday

Maximum temperature yesterday: 77 °F (at 1:30 PM)
Minimum temperature yesterday: 54 °F (at 6:00 AM)
Average temperature yesterday: 65 °F

Past Weeks' High & Low Weather Summary

 TemperatureHumidityPressure
High90 °F (Oct 19, 1:00 PM)100% (Oct 9, 11:00 PM)30.24 "Hg (Oct 9, 11:00 PM)
Low48 °F (Oct 24, 7:30 AM)26% (Oct 23, 4:30 PM)29.74 "Hg (Oct 14, 4:00 PM)
Average71 °F76%30.00 "Hg
* Reported Oct 9 8:00 AM — Oct 24 8:30 AM, Palma, Weather by CustomWeather, © 2014

Note: Actual official high and low records may vary slightly from our data, if they occured in-between our weather recording intervals... More about our weather records

Advertising

Palma weather history for previous 24 hours

 ConditionsComfort  
Time TempWeatherWind HumidityBarometerVisibility
8:30 AM
Oct 24
50 °FClear.No wind82%30.01 "Hg10 mi
8:00 AM48 °FClear.1 mph87%30.01 "Hg10 mi
7:30 AM48 °FClear.2 mph94%30.01 "Hg10 mi
7:00 AM50 °FClear.1 mph88%30.01 "Hg10 mi
6:30 AM50 °FClear.1 mph88%30.01 "Hg10 mi
6:00 AM50 °FClear.No wind88%30.01 "Hg10 mi
5:30 AM50 °FClear.No wind94%30.01 "Hg10 mi
4:30 AM50 °FClear.No wind88%30.01 "Hg10 mi
4:00 AM52 °FClear.1 mph88%30.01 "Hg10 mi
3:30 AM54 °FClear.No wind82%30.01 "Hg10 mi
3:00 AM54 °FClear.2 mph77%30.01 "Hg10 mi
2:30 AM55 °FClear.1 mph77%30.01 "Hg10 mi
2:00 AM57 °FClear.No wind72%30.01 "Hg10 mi
1:30 AM55 °FClear.3 mph77%30.04 "Hg10 mi
1:00 AM55 °FClear.3 mph77%30.04 "Hg10 mi
12:30 AM57 °FClear.No wind72%30.04 "Hg10 mi
12:00 AM57 °FClear.No wind67%30.04 "Hg10 mi
11:30 PM
Oct 23
59 °FClear.No wind63%30.04 "Hg10 mi
11:00 PM59 °FClear.2 mph63%30.04 "Hg10 mi
10:30 PM59 °FClear.No wind59%30.04 "Hg10 mi
10:00 PM61 °FClear.2 mph55%30.04 "Hg10 mi
9:30 PM63 °FClear.No wind52%30.04 "Hg10 mi
9:00 PM66 °FClear.2 mph46%30.04 "Hg10 mi
8:30 PM63 °FClear.No wind52%30.04 "Hg10 mi
8:00 PM66 °FClear.1 mph43%30.04 "Hg10 mi
7:30 PM68 °FSunny.6 mph40%30.04 "Hg10 mi
7:00 PM70 °FSunny.2 mph40%30.04 "Hg10 mi
6:30 PM73 °FSunny.6 mph33%30.04 "Hg10 mi
6:00 PM75 °FSunny.8 mph31%30.04 "Hg10 mi
5:30 PM75 °FPassing clouds.10 mph29%30.04 "HgN/A
5:00 PM77 °FSunny.9 mph28%30.04 "Hg10 mi
4:30 PM77 °FPassing clouds.9 mph26%30.04 "HgN/A
4:00 PM77 °FPassing clouds.9 mph28%30.04 "HgN/A
3:30 PM77 °FPassing clouds.7 mph32%30.07 "HgN/A
3:00 PM77 °FPassing clouds.14 mph32%30.07 "HgN/A
2:30 PM77 °FPassing clouds.10 mph36%30.07 "HgN/A
2:00 PM77 °FPassing clouds.13 mph34%30.09 "HgN/A
1:30 PM77 °FPassing clouds.12 mph39%30.09 "HgN/A
1:00 PM75 °FPassing clouds.13 mph41%30.12 "HgN/A
12:30 PM75 °FPassing clouds.10 mph44%30.12 "HgN/A
12:00 PM73 °FPassing clouds.8 mph53%30.12 "HgN/A
11:30 AM73 °FPassing clouds.5 mph53%30.15 "HgN/A
11:00 AM72 °FPassing clouds.5 mph65%30.15 "HgN/A
10:30 AM66 °FPassing clouds.1 mph73%30.15 "HgN/A
10:00 AM63 °FPassing clouds.No wind77%30.15 "HgN/A
9:30 AM59 °FPassing clouds.No wind82%30.15 "HgN/A
9:00 AM57 °FPassing clouds.No wind88%30.15 "HgN/A
Weather by CustomWeather, © 2014

See weather overviewHow to use our weather pages